Location: Austin
(30.3000°N, 97.7500°W)
Time: 15:33:25
(UTC-06:00)

SMAP - Pass Details

Date: 10 January 2026
Orbit: 681 x 683 km, 98.1° (Epoch: 20 January)

Event Time Altitude Azimuth Distance (km) Brightness Sun altitude
Rises 18:30:28 0° 182° (S) 3,027 6.7 -9.1°
Reaches altitude 10° 18:32:47 10° 189° (S) 2,116 6.0 -9.6°
Maximum altitude 18:37:12 43° 261° (W) 949 4.4 -10.5°
Drops below altitude 10° 18:41:37 10° 333° (NNW) 2,126 5.7 -11.4°
Sets 18:43:58 0° 340° (NNW) 3,044 6.4 -11.9°
